Previsão horária em Ploska

Hoje, 3 Março, Quarta-feira

Tempo Temperatura Precipitação Vento Pressão Humidade
00:00 0°C° 0 mm 3 m/s 752 mmHg 91%
01:00 0°C° 0 mm 3 m/s 752 mmHg 92%
02:00 -1°C° 0 mm 3 m/s 753 mmHg 93%
03:00 -1°C° 0 mm 3 m/s 753 mmHg 94%
04:00 -1°C° 0 mm 2 m/s 752 mmHg 95%
05:00 -1°C° 0 mm 2 m/s 752 mmHg 95%
06:00 -1°C° 0 mm 2 m/s 752 mmHg 95%
07:00 -1°C° 0 mm 2 m/s 753 mmHg 95%
08:00 -1°C° 0 mm 2 m/s 753 mmHg 95%
09:00 +2°C° 0 mm 2 m/s 753 mmHg 90%
10:00 +3°C° 0 mm 2 m/s 753 mmHg 85%
11:00 +4°C° 0 mm 2 m/s 753 mmHg 80%
12:00 +4°C° 0 mm 3 m/s 752 mmHg 77%
13:00 +5°C° 0 mm 3 m/s 752 mmHg 73%
14:00 +7°C° 0 mm 3 m/s 752 mmHg 70%
15:00 +5°C° 0 mm 3 m/s 751 mmHg 72%
16:00 +6°C° 0 mm 2 m/s 750 mmHg 75%
17:00 +6°C° 0 mm 2 m/s 750 mmHg 78%
18:00 +5°C° 0 mm 2 m/s 749 mmHg 81%
19:00 +4°C° 0 mm 2 m/s 749 mmHg 84%
20:00 +3°C° 0 mm 2 m/s 749 mmHg 87%
21:00 +3°C° 0 mm 2 m/s 748 mmHg 87%
22:00 +3°C° 0 mm 2 m/s 748 mmHg 87%
23:00 +1°C° 0 mm 3 m/s 747 mmHg 87%

Amanhã, 4 Março, Quinta-feira

Tempo Temperatura Precipitação Vento Pressão Humidade
00:00 +1°C° 0 mm 3 m/s 747 mmHg 88%
01:00 +1°C° 0 mm 3 m/s 746 mmHg 88%
02:00 +1°C° 0 mm 3 m/s 746 mmHg 89%
03:00 0°C° 0 mm 4 m/s 745 mmHg 88%
04:00 0°C° 0 mm 4 m/s 744 mmHg 88%
05:00 0°C° 0 mm 5 m/s 743 mmHg 87%
06:00 +1°C° 0 mm 5 m/s 743 mmHg 86%
07:00 +1°C° 0 mm 6 m/s 742 mmHg 84%
08:00 +1°C° 0 mm 6 m/s 742 mmHg 83%
09:00 +3°C° 0 mm 7 m/s 741 mmHg 77%
10:00 +5°C° 0 mm 7 m/s 741 mmHg 72%
11:00 +6°C° 0 mm 8 m/s 740 mmHg 66%
12:00 +7°C° 0 mm 8 m/s 740 mmHg 66%
13:00 +7°C° 0 mm 8 m/s 740 mmHg 66%
14:00 +9°C° 0 mm 8 m/s 739 mmHg 65%
15:00 +9°C° 0 mm 7 m/s 739 mmHg 67%
16:00 +8°C° 0 mm 6 m/s 738 mmHg 68%
17:00 +8°C° 0 mm 5 m/s 738 mmHg 69%
18:00 +7°C° 0 mm 5 m/s 738 mmHg 73%
19:00 +6°C° 0 mm 5 m/s 738 mmHg 77%
20:00 +5°C° 0 mm 4 m/s 738 mmHg 81%
21:00 +5°C° 0 mm 4 m/s 738 mmHg 83%
22:00 +4°C° 0 mm 4 m/s 738 mmHg 85%
23:00 +3°C° 0 mm 4 m/s 738 mmHg 87%

Depois de amanhã, 5 Março, Sexta-feira

Tempo Temperatura Precipitação Vento Pressão Humidade
00:00 +3°C° 0.2 mm 3 m/s 738 mmHg 88%
01:00 +2°C° 0.2 mm 3 m/s 738 mmHg 89%
02:00 +2°C° 0.2 mm 2 m/s 737 mmHg 90%
03:00 +2°C° 0.9 mm 2 m/s 737 mmHg 93%
04:00 +1°C° 0.9 mm 2 m/s 737 mmHg 95%
05:00 +1°C° 0.9 mm 2 m/s 737 mmHg 98%
06:00 -1°C° 0.6 mm 3 m/s 738 mmHg 96%
07:00 -2°C° 0.6 mm 4 m/s 738 mmHg 95%
08:00 -2°C° 0.6 mm 5 m/s 739 mmHg 94%
09:00 -2°C° 0.1 mm 4 m/s 739 mmHg 91%
10:00 -2°C° 0.1 mm 4 m/s 740 mmHg 87%
11:00 -2°C° 0.1 mm 4 m/s 740 mmHg 84%
12:00 -1°C° 0 mm 4 m/s 741 mmHg 81%
13:00 -1°C° 0 mm 4 m/s 741 mmHg 78%
14:00 -1°C° 0 mm 4 m/s 742 mmHg 74%
15:00 -1°C° 0.1 mm 4 m/s 742 mmHg 72%
16:00 -1°C° 0.1 mm 4 m/s 742 mmHg 69%
17:00 0°C° 0.1 mm 3 m/s 742 mmHg 67%
18:00 -1°C° 0 mm 3 m/s 743 mmHg 68%
19:00 -2°C° 0 mm 3 m/s 743 mmHg 70%
20:00 -3°C° 0 mm 2 m/s 744 mmHg 72%
21:00 -3°C° 0 mm 2 m/s 745 mmHg 72%
22:00 -3°C° 0 mm 2 m/s 745 mmHg 72%
23:00 -3°C° 0 mm 2 m/s 746 mmHg 73%

6 Março, Sábado

Tempo Temperatura Precipitação Vento Pressão Humidade
00:00 -3°C° 0 mm 2 m/s 746 mmHg 74%
01:00 -3°C° 0 mm 2 m/s 746 mmHg 76%
02:00 -4°C° 0 mm 2 m/s 747 mmHg 78%
03:00 -4°C° 0 mm 2 m/s 747 mmHg 78%
04:00 -4°C° 0 mm 2 m/s 747 mmHg 77%
05:00 -4°C° 0 mm 2 m/s 747 mmHg 77%
06:00 -4°C° 0 mm 2 m/s 747 mmHg 74%
07:00 -5°C° 0 mm 3 m/s 748 mmHg 71%
08:00 -4°C° 0 mm 3 m/s 748 mmHg 67%
09:00 -4°C° 0 mm 4 m/s 748 mmHg 68%
10:00 -3°C° 0 mm 4 m/s 749 mmHg 68%
11:00 -4°C° 0 mm 5 m/s 749 mmHg 69%
12:00 -2°C° 0.1 mm 5 m/s 749 mmHg 61%
13:00 -3°C° 0.1 mm 6 m/s 749 mmHg 53%
14:00 -2°C° 0.1 mm 6 m/s 750 mmHg 45%
15:00 -3°C° 0 mm 6 m/s 750 mmHg 46%
16:00 -2°C° 0 mm 5 m/s 750 mmHg 46%
17:00 -2°C° 0 mm 4 m/s 750 mmHg 47%
18:00 -3°C° 0 mm 4 m/s 750 mmHg 52%
19:00 -4°C° 0 mm 4 m/s 750 mmHg 58%
20:00 -5°C° 0 mm 3 m/s 750 mmHg 63%
21:00 -5°C° 0 mm 3 m/s 750 mmHg 62%
22:00 -4°C° 0 mm 4 m/s 750 mmHg 60%
23:00 -4°C° 0 mm 4 m/s 750 mmHg 59%

7 Março, Domingo

Tempo Temperatura Precipitação Vento Pressão Humidade
00:00 -5°C° 0 mm 5 m/s 749 mmHg 61%
01:00 -5°C° 0 mm 5 m/s 749 mmHg 63%
02:00 -5°C° 0 mm 6 m/s 748 mmHg 65%
03:00 -5°C° 0 mm 6 m/s 748 mmHg 66%
04:00 -5°C° 0 mm 6 m/s 747 mmHg 66%
05:00 -6°C° 0 mm 7 m/s 746 mmHg 67%
06:00 -6°C° 0 mm 7 m/s 746 mmHg 64%
07:00 -6°C° 0 mm 8 m/s 746 mmHg 62%
08:00 -6°C° 0 mm 8 m/s 745 mmHg 59%
09:00 -4°C° 0 mm 9 m/s 745 mmHg 55%
10:00 -3°C° 0 mm 9 m/s 745 mmHg 51%
11:00 -2°C° 0 mm 10 m/s 745 mmHg 47%
12:00 -2°C° 0 mm 10 m/s 744 mmHg 47%
13:00 0°C° 0 mm 10 m/s 743 mmHg 47%
14:00 +1°C° 0 mm 10 m/s 743 mmHg 46%
15:00 0°C° 0 mm 9 m/s 742 mmHg 49%
16:00 0°C° 0 mm 8 m/s 742 mmHg 51%
17:00 0°C° 0 mm 8 m/s 741 mmHg 54%
18:00 -1°C° 0 mm 7 m/s 741 mmHg 57%
19:00 -2°C° 0 mm 7 m/s 741 mmHg 60%
20:00 -2°C° 0 mm 7 m/s 741 mmHg 63%
21:00 -3°C° 0.1 mm 7 m/s 741 mmHg 71%
22:00 -3°C° 0.1 mm 7 m/s 741 mmHg 79%
23:00 -4°C° 0.1 mm 7 m/s 741 mmHg 88%

8 Março, Segunda-feira

Tempo Temperatura Precipitação Vento Pressão Humidade
00:00 -4°C° 0.3 mm 7 m/s 741 mmHg 89%
01:00 -6°C° 0.3 mm 7 m/s 741 mmHg 90%
02:00 -6°C° 0.3 mm 7 m/s 741 mmHg 91%
03:00 -5°C° 0.1 mm 6 m/s 741 mmHg 80%
04:00 -6°C° 0.1 mm 5 m/s 741 mmHg 70%
05:00 -5°C° 0.1 mm 4 m/s 742 mmHg 60%
06:00 -6°C° 0 mm 5 m/s 742 mmHg 60%
07:00 -7°C° 0 mm 5 m/s 742 mmHg 60%
08:00 -7°C° 0 mm 5 m/s 743 mmHg 60%
09:00 -6°C° 0 mm 6 m/s 743 mmHg 57%
10:00 -5°C° 0 mm 6 m/s 744 mmHg 54%
11:00 -5°C° 0 mm 6 m/s 744 mmHg 51%
12:00 -4°C° 0 mm 7 m/s 744 mmHg 50%
13:00 -4°C° 0 mm 7 m/s 744 mmHg 49%
14:00 -4°C° 0 mm 7 m/s 744 mmHg 49%
15:00 -4°C° 0.1 mm 7 m/s 745 mmHg 49%
16:00 -4°C° 0.1 mm 7 m/s 745 mmHg 50%
17:00 -6°C° 0.1 mm 7 m/s 745 mmHg 50%
18:00 -6°C° 0 mm 6 m/s 746 mmHg 52%
19:00 -6°C° 0 mm 6 m/s 746 mmHg 55%
20:00 -7°C° 0 mm 5 m/s 747 mmHg 57%
21:00 -7°C° 0 mm 5 m/s 747 mmHg 57%
22:00 -7°C° 0 mm 4 m/s 748 mmHg 56%
23:00 -7°C° 0 mm 3 m/s 749 mmHg 56%
Mostrar mais

Necessitamos do seu Consentimento

A Meteoprog e os seus Fornecedores de Serviços podem armazenar e aceder a dados pessoais como cookies, identificadores do dispositivo ou outras tecnologias semelhantes existentes no seu dispositivo e processar estes dados para personalizar conteúdos e anúncios, assim como funcionalidades nas redes sociais e análise de tráfego.

  • Armazenar e/ou aceder a informações no seu dispositivo

    Os cookies, identificadores do dispositivo ou outras informações podem ser armazenados ou acedidos no seu dispositivo, para os fins acima indicados.

  • Anúncios e conteúdos personalizados, medição de anúncios e conteúdos, dados sobre o público-alvo e desenvolvimento de produtos

    Os anúncios e os conteúdos podem ser personalizados com base num perfil. Podem ser adicionados dados adicionais para uma maior personalização dos anúncios e dos conteúdos. A eficácia dos anúncios e dos conteúdos pode ser medida. Podem ser obtidas informações sobre o público que visualizou os anúncios e os conteúdos. Estes dados podem ser usados para desenvolver ou melhorar sistemas, softwares ou a experiência do utilizador.

Ao clicar em "Eu concordo”, permitirá o uso de cookies, identificadores do dispositivo e web beacons mencionados ou outras tecnologias semelhantes. As configurações do navegador do seu dispositivo podem ser alteradas.

Para certos fins, podem ser invocados interesses legítimos ao invés de consentimento. Pode ler mais informação sobre este assunto na nossa Política de Privacidade e Cookies.